Saranac Lake, NY

4:21 AM EDT on July 23, 2017 (GMT -0400)
Adirondack Regional

Weather History for KSLK - May, 2013

Change the Weather History Date:

Thursday, May 30, 2013

  Actual Average Record
Temperature  
Mean Temperature 69 °F 55 °F  
Max Temperature 81 °F 68 °F 85 °F (1959)
Min Temperature 57 °F 42 °F 28 °F (1961)
Degree Days  
Heating Degree Days 0 10  
Month to date heating degree days 452  
Since 1 July heating degree days 9223  
Cooling Degree Days 4 0  
Month to date cooling degree days 5 0  
Year to date cooling degree days 5 0  
Growing Degree Days 20 (Base 50)    
Moisture  
Dew Point 60 °F    
Average Humidity 71    
Maximum Humidity 97    
Minimum Humidity 45    
Precipitation  
Precipitation 0.00 in 0.13 in 0.86 in (2015)
Month to date precipitation 5.74 3.32  
Year to date precipitation 11.00 12.23  
Sea Level Pressure  
Sea Level Pressure 30.06 in    
Wind  
Wind Speed 7 mph (WSW)    
Max Wind Speed 16 mph    
Max Gust Speed 24 mph    
Visibility 8 miles    
Events      
T = Trace of Precipitation, MM = Missing Value Source: NWS Daily Summary

Daily Weather History Graph

Daily Weather History Graph

Search for Another Location

Airport or City:

Trip Planner

Search our weather history database for the weather conditions in past years. The results will help you decide how hot, cold, wet, or windy it might be!

Date:

Astronomy

May. 30, 2013 Rise Set
Actual Time 5:16 AM EDT 8:32 PM EDT
Civil Twilight 4:41 AM EDT 9:08 PM EDT
Nautical Twilight 3:55 AM EDT 9:54 PM EDT
Astronomical Twilight 2:58 AM EDT 10:51 PM EDT
Moon 12:23 AM EDT (5/30) 11:31 AM EDT (5/30)
Length of Visible Light 16h 27m
Length of Day
15h 16m
Waning Gibbous, 62% of the Moon is Illuminated
May 30
Waning Gibbous
May 31
Last Quarter
Jun 8
New
Jun 16
First Quarter
Jun 23
Full

Hourly Weather History & Observations

Time (EDT) Temp. Heat Index Dew Point Humidity Pressure Visibility Wind Dir Wind Speed Gust Speed Precip Events Conditions
12:03 AM 64.4 °F - 60.8 °F 88% 30.00 in 6.0 mi SW 8.1 mph - N/A   Mostly Cloudy
12:51 AM 63.0 °F - 61.0 °F 93% 30.01 in 6.0 mi SW 5.8 mph - N/A   Mostly Cloudy
12:59 AM 62.6 °F - 60.8 °F 94% 30.02 in 6.0 mi SW 6.9 mph - N/A   Overcast
1:51 AM 64.0 °F - 62.1 °F 93% 30.01 in 6.0 mi Variable 4.6 mph - N/A   Overcast
2:51 AM 64.0 °F - 61.0 °F 90% 30.03 in 7.0 mi WSW 8.1 mph 17.3 mph N/A   Overcast
3:20 AM 62.6 °F - 60.8 °F 94% 30.04 in 9.0 mi Variable 4.6 mph - N/A   Mostly Cloudy
3:27 AM 62.6 °F - 59.0 °F 88% 30.04 in 9.0 mi Variable 5.8 mph - N/A   Scattered Clouds
3:51 AM 62.1 °F - 57.9 °F 86% 30.03 in 10.0 mi SW 4.6 mph - N/A   Clear
4:51 AM 61.0 °F - 59.0 °F 93% 30.04 in 7.0 mi SW 3.5 mph - N/A   Overcast
5:46 AM 60.8 °F - 59.0 °F 94% 30.08 in 5.0 mi WSW 4.6 mph - N/A   Overcast
5:51 AM 61.0 °F - 59.0 °F 93% 30.06 in 5.0 mi SW 5.8 mph - N/A   Overcast
6:26 AM 62.6 °F - 60.8 °F 94% 30.08 in 5.0 mi WSW 4.6 mph - N/A   Overcast
6:37 AM 62.6 °F - 60.8 °F 94% 30.08 in 5.0 mi WSW 4.6 mph - N/A   Overcast
6:51 AM 62.1 °F - 60.1 °F 93% 30.07 in 5.0 mi SW 6.9 mph - N/A   Overcast
7:51 AM 63.0 °F - 61.0 °F 93% 30.08 in 5.0 mi WSW 5.8 mph - N/A   Overcast
8:51 AM 66.0 °F - 62.1 °F 87% 30.08 in 7.0 mi WSW 5.8 mph - N/A   Overcast
9:06 AM 66.2 °F - 62.6 °F 88% 30.10 in 7.0 mi West 8.1 mph - N/A   Overcast
9:51 AM 70.0 °F - 61.0 °F 73% 30.09 in 10.0 mi WSW 10.4 mph - N/A   Mostly Cloudy
10:35 AM 71.6 °F - 60.8 °F 69% 30.10 in 10.0 mi Variable 4.6 mph - N/A   Mostly Cloudy
10:43 AM 71.6 °F - 60.8 °F 69% 30.10 in 10.0 mi West 6.9 mph - N/A   Mostly Cloudy
10:51 AM 71.1 °F - 61.0 °F 70% 30.09 in 10.0 mi Variable 6.9 mph - N/A   Mostly Cloudy
11:51 AM 75.0 °F - 60.1 °F 60% 30.09 in 10.0 mi WNW 13.8 mph 19.6 mph N/A   Mostly Cloudy
12:51 PM 77.0 °F - 59.0 °F 54% 30.08 in 10.0 mi WSW 15.0 mph 21.9 mph N/A   Scattered Clouds
1:51 PM 79.0 °F - 57.9 °F 48% 30.07 in 10.0 mi WSW 12.7 mph 24.2 mph N/A   Partly Cloudy
2:51 PM 80.1 °F 80.6 °F 57.9 °F 47% 30.06 in 10.0 mi Variable 4.6 mph - N/A   Partly Cloudy
3:51 PM 81.0 °F 81.3 °F 59.0 °F 47% 30.06 in 10.0 mi WSW 10.4 mph - N/A   Scattered Clouds
4:51 PM 80.1 °F 80.7 °F 59.0 °F 48% 30.06 in 10.0 mi WSW 9.2 mph - N/A   Partly Cloudy
5:51 PM 80.1 °F 80.7 °F 59.0 °F 48% 30.05 in 10.0 mi WSW 12.7 mph 19.6 mph N/A   Partly Cloudy
6:51 PM 78.1 °F - 57.9 °F 50% 30.05 in 10.0 mi Variable 6.9 mph 16.1 mph N/A   Clear
7:51 PM 75.0 °F - 60.1 °F 60% 30.06 in 10.0 mi WSW 6.9 mph - N/A   Clear
8:51 PM 71.1 °F - 60.1 °F 68% 30.06 in 10.0 mi SW 4.6 mph - N/A   Clear
9:51 PM 63.0 °F - 60.1 °F 90% 30.07 in 9.0 mi WSW 3.5 mph - N/A   Clear
10:51 PM 62.1 °F - 59.0 °F 90% 30.08 in 8.0 mi SW 3.5 mph - N/A   Clear
11:51 PM 61.0 °F - 57.9 °F 90% 30.09 in 7.0 mi Calm Calm - N/A   Clear